Location: Góry Miechowskie
(50.3599°N, 20.1803°E)
Time: 23:12:13
(UTC+00:00)

Vanguard 3 - Pass Details

Date: 20 September 2024
Orbit: 507 x 3224 km, 33.4° (Epoch: 02 October)

Event Time Altitude Azimuth Distance (km) Brightness Sun altitude
Exits shadow 01:38:59 - 181° (S) 5,820 11.2 -25.2°
Reaches altitude 10° 01:43:45 10° 167° (SSE) 5,400 11.1 -24.6°
Maximum altitude 01:52:54 17° 133° (SE) 5,302 11.4 -23.4°
Drops below altitude 10° 02:03:05 10° 101° (E) 6,150 12.2 -22.0°
Sets 02:10:28 0° 86° (E) 7,131 13.1 -21.0°
